Weather History for KOMK - September, 2013

Change the Weather History Date:

Sunday, September 15, 2013

  Actual Average Record
Temperature  
Mean Temperature 74 °F 63 °F  
Max Temperature 86 °F 78 °F 93 °F (1938)
Min Temperature 61 °F 48 °F 29 °F (1936)
Degree Days  
Heating Degree Days 0 4  
Month to date heating degree days 6 38  
Since 1 July heating degree days 6 69  
Cooling Degree Days 9 2  
Month to date cooling degree days 127 46  
Year to date cooling degree days 813 652  
Growing Degree Days 24 (Base 50)    
Moisture  
Dew Point 54 °F    
Average Humidity 61    
Maximum Humidity 90    
Minimum Humidity 32    
Precipitation  
Precipitation 0.27 in 0.02 in 1.27 in (1959)
Month to date precipitation 0.91 0.24  
Year to date precipitation 8.33 9.26  
Sea Level Pressure  
Sea Level Pressure 29.73 in    
Wind  
Wind Speed 8 mph (North)    
Max Wind Speed 29 mph    
Max Gust Speed 38 mph    
Visibility 10 miles    
Events Rain    
T = Trace of Precipitation, MM = Missing Value Source: NWS Daily Summary

Daily Weather History Graph

Daily Weather History Graph

Search for Another Location

Airport or City:

Trip Planner

Search our weather history database for the weather conditions in past years. The results will help you decide how hot, cold, wet, or windy it might be!

Date:

Astronomy

Sep. 15, 2013 Rise Set
Actual Time 6:35 AM PDT 7:09 PM PDT
Civil Twilight 6:03 AM PDT 7:41 PM PDT
Nautical Twilight 5:26 AM PDT 8:18 PM PDT
Astronomical Twilight 4:47 AM PDT 8:57 PM PDT
Moon 4:54 PM PDT (9/15) 2:02 AM PDT (9/15)
Length of Visible Light 13h 37m
Length of Day
12h 34m
Waxing Gibbous, 83% of the Moon is Illuminated
Sep 15
Waxing Gibbous
Sep 19
Full
Sep 26
Last Quarter
Oct 4
New
Oct 11
First Quarter

Hourly Weather History & Observations

Time (PDT) Temp. Heat Index Dew Point Humidity Pressure Visibility Wind Dir Wind Speed Gust Speed Precip Events Conditions
12:53 AM 70.0 °F - 53.1 °F 55% 29.80 in 10.0 mi NNW 9.2 mph - N/A   Clear
1:53 AM 69.1 °F - 52.0 °F 54% 29.79 in 10.0 mi North 8.1 mph - N/A   Clear
2:53 AM 66.9 °F - 52.0 °F 59% 29.79 in 10.0 mi North 8.1 mph - N/A   Clear
3:53 AM 66.9 °F - 51.1 °F 57% 29.80 in 10.0 mi North 9.2 mph - N/A   Clear
4:53 AM 66.9 °F - 50.0 °F 54% 29.80 in 10.0 mi North 10.4 mph - N/A   Clear
5:53 AM 66.0 °F - 50.0 °F 56% 29.80 in 10.0 mi North 8.1 mph - N/A   Clear
6:53 AM 66.0 °F - 51.1 °F 59% 29.80 in 10.0 mi North 10.4 mph - N/A   Clear
7:53 AM 68.0 °F - 51.1 °F 55% 29.80 in 10.0 mi North 8.1 mph - N/A   Clear
8:53 AM 71.1 °F - 52.0 °F 51% 29.80 in 10.0 mi North 8.1 mph - N/A   Clear
9:53 AM 77.0 °F - 53.1 °F 43% 29.78 in 10.0 mi North 8.1 mph - N/A   Clear
10:53 AM 75.0 °F - 53.1 °F 46% 29.78 in 10.0 mi North 9.2 mph - N/A   Clear
11:53 AM 75.9 °F - 54.0 °F 46% 29.76 in 10.0 mi NNE 8.1 mph - N/A   Clear
12:53 PM 80.1 °F 80.0 °F 54.0 °F 40% 29.74 in 10.0 mi NNE 6.9 mph - N/A   Clear
1:53 PM 84.0 °F - 52.0 °F 33% 29.72 in 10.0 mi NE 8.1 mph - N/A   Clear
2:53 PM 82.0 °F 81.3 °F 54.0 °F 38% 29.70 in 10.0 mi ESE 3.5 mph - N/A   Clear
3:53 PM 82.9 °F 82.1 °F 55.9 °F 39% 29.68 in 10.0 mi Calm Calm - N/A   Clear
4:53 PM 84.0 °F 82.5 °F 53.1 °F 34% 29.66 in 10.0 mi ESE 3.5 mph - N/A   Partly Cloudy
5:53 PM 81.0 °F 81.0 °F 57.0 °F 44% 29.64 in 10.0 mi Calm Calm - N/A   Mostly Cloudy
6:53 PM 78.1 °F - 54.0 °F 43% 29.62 in 10.0 mi NW 12.7 mph 18.4 mph 0.00 in   Mostly Cloudy
7:53 PM 75.0 °F - 55.0 °F 50% 29.62 in 10.0 mi WNW 12.7 mph - N/A   Mostly Cloudy
8:53 PM 72.0 °F - 57.0 °F 59% 29.61 in 10.0 mi WNW 13.8 mph - N/A   Partly Cloudy
9:53 PM 72.0 °F - 55.9 °F 57% 29.60 in 10.0 mi NW 10.4 mph - N/A   Scattered Clouds
10:20 PM 68.0 °F - 55.4 °F 64% 29.73 in 6.0 mi SSW 21.9 mph 36.8 mph 0.01 in Rain Light Rain
10:53 PM 64.0 °F - 57.9 °F 80% 29.78 in 4.0 mi SE 13.8 mph - 0.13 in Rain Heavy Rain
11:53 PM 63.0 °F - 59.0 °F 87% 29.75 in 10.0 mi ENE 4.6 mph - 0.14 in Rain Light Rain